« Back
NWS Peachtree City, Ga » Text Product » GA Regional Weather Roundup


Printer-friendly Version
Current Version              Previous Versions:   1  2  3  4  5  6  7  8  9  

Regional Weather Roundup

149
ASUS42 KFFC 310003
RWRGA
WEATHER ROUNDUP FOR GEORGIA
NATIONAL WEATHER SERVICE PEACHTREE CITY GA
800 PM EDT MON MAR 30 2015

NOTE: "FAIR" INDICATES FEW OR NO CLOUDS BELOW 12,000 FEET WITH NO
SIGNIFICANT WEATHER AND/OR OBSTRUCTIONS TO VISIBILITY.

* = USE WITH CAUTION. THE STATIONS MARKED WITH AN ASTERISK MAY NOT
REPORT WEATHER SUCH AS PRECIPITATION, FOG, OR THUNDER AND ARE NOT
QUALITY CONTROLLED BY NWS.

THE REMARK "TC" DENOTES TEMPERATURE READING IN DEGREES CELSIUS.

GAZ001>058-310100-
NORTH GEORGIA

CITY           SKY/WX    TMP DP  RH WIND       PRES   REMARKS
ATLANTA        PTCLDY    65  40  39 NW7       30.08F
6HR MIN TEMP:  63; 6HR MAX TEMP:  71;

ATHENS         PTCLDY    64  39  39 W7        30.06S
6HR MIN TEMP:  64; 6HR MAX TEMP:  72;

CHAMBLEE       CLEAR     63  42  46 W7        30.08F
6HR MIN TEMP:  63; 6HR MAX TEMP:  69;

PEACHTREE CITY CLEAR     66  45  46 W3        30.08F
6HR MIN TEMP:  63; 6HR MAX TEMP:  72;

ROME           CLEAR     64  42  44 W6        30.09R
6HR MIN TEMP:  64; 6HR MAX TEMP:  71;

WEST ATLANTA   CLEAR     65  40  39 NW7       30.08F
6HR MIN TEMP:  64; 6HR MAX TEMP:  71;

GAINESVILLE    CLEAR     63  38  39 W9        30.08S
6HR MIN TEMP:  63; 6HR MAX TEMP:  69;

CARTERSVILLE   CLEAR     62  42  47 CALM      30.10S
6HR MIN TEMP:  62; 6HR MAX TEMP:  70;



CITY           SKY/WX    TMP DP  RH WIND       PRES   REMARKS
DALTON*        CLEAR     63  34  34 CALM      30.09S
LAWRENCEVILLE* CLEAR     64  39  39 W6        30.06F
KENNESAW*      CLEAR     64  43  45 NW9       30.10S
$$

GAZ059>098-102>109-310100-
CENTRAL GEORGIA

CITY           SKY/WX    TMP DP  RH WIND       PRES   REMARKS
AUGUSTA-BUSH   PTCLDY    67  50  54 W8        30.03S
6HR MIN TEMP:  63; 6HR MAX TEMP:  72;

AUGUSTA-DANIEL PTCLDY    69  46  43 VRB5      30.04S
6HR MIN TEMP:  63; 6HR MAX TEMP:  73;

COLUMBUS       CLEAR     70  49  47 W5        30.07F
6HR MIN TEMP:  66; 6HR MAX TEMP:  76;

MACON          CLEAR     68  50  52 CALM      30.07S
6HR MIN TEMP:  61; 6HR MAX TEMP:  74;

ROBINS AFB     CLEAR     65  56  71 N2        30.02F


CITY           SKY/WX    TMP DP  RH WIND       PRES   REMARKS
LAGRANGE*      CLEAR     69  51  52 CALM      30.08S
SYLVANIA*      CLEAR     64  56  77 W3        30.07F
MILLEDGEVILLE* CLEAR     64  52  63 CALM      30.06F
$$

GAZ099>101-110>166-310100-
SOUTH GEORGIA

CITY           SKY/WX    TMP DP  RH WIND       PRES   REMARKS
SAVANNAH       PTCLDY    62  54  74 W6        30.07S
6HR MIN TEMP:  61; 6HR MAX TEMP:  71;

VALDOSTA       PTCLDY    67  56  67 S5        30.12S
6HR MIN TEMP:  67; 6HR MAX TEMP:  78;

ALMA           CLEAR     64  58  80 CALM      30.08F
6HR MIN TEMP:  63; 6HR MAX TEMP:  73;

ST SIMONS      CLEAR     63  55  75 S6        30.10R
6HR MIN TEMP:  63; 6HR MAX TEMP:  72;

FT STEWART     CLEAR     64  56  75 W5        30.06S
ALBANY         CLEAR     70  57  63 W5        30.11S
HUNTER AFB     CLEAR     65  57  75 W7        30.05S
MOODY AFB      CLEAR     69  56  65 SW9       30.10S
BRUNSWICK      CLEAR     63  55  77 CALM      30.10S


CITY           SKY/WX    TMP DP  RH WIND       PRES   REMARKS
BAINBRIDGE*    PTCLDY    72  66  83 SW7       30.11F
MOULTRIE*      PTCLDY    70  61  73 SW5       30.11F
VIDALIA*       CLEAR     66  57  72 CALM      30.08F
WAYCROSS*      PTCLDY    73  61  67 W3        30.09R
DOUGLAS*       CLEAR     72  57  60 CALM      30.10S
$$



USA.gov is the U.S. government's official web portal to all federal, state and local government web resources and services.